Location: Marsån
(66.4167°N, 22.2833°E)
Time: 08:44:03
(UTC+00:00)

Nadezhda 2 Rocket - Pass Details

Date: 24 February 2024
Orbit: 947 x 1011 km, 82.9° (Epoch: 20 April)

Event Time Altitude Azimuth Distance (km) Brightness Sun altitude
Rises 19:49:37 0° 341° (NNW) 3,706 8.5 -25.8°
Reaches altitude 10° 19:52:10 10° 342° (NNW) 2,745 7.6 -26.0°
Maximum altitude 19:58:29 81° 71° (ENE) 989 4.4 -26.5°
Enters shadow 19:59:17 68° 137° (SE) 1,039 4.3 -26.5°
